Preview of NWS' New Version of Forecast
This preview is not operational and should not be used for support decisions.

Regional Weather Roundup (RWR)

Issued by National Weather Service (NWS)

                            
000
ASUS43 KTOP 181359
RWRKS 

WEATHER ROUNDUP FOR KANSAS
NATIONAL WEATHER SERVICE GOODLAND KS
800 AM CST MON FEB 18 2019

NOTE:  "FAIR" INDICATES FEW OR NO CLOUDS BELOW 12,000 FEET WITH NO
SIGNIFICANT WEATHER AND/OR OBSTRUCTIONS TO VISIBILITY.

KSZ001>006-013>018-027>032-041>047-181500-
NORTHWEST KANSAS
  
CITY           SKY/WX    TMP DP  RH WIND       PRES   REMARKS
GOODLAND       LGT SNOW   4   0  83 N9        30.30R FOG              
HAYS           CLOUDY    10   4  76 N10       30.44R WCI  -4          
HILL CITY      CLOUDY     9   2  73 NW10      30.43R WCI  -5          
RUSSELL        CLOUDY    10   4  76 NW10      30.42R WCI  -4          
$$

KSZ061>065-074>080-084>089-181500-
SOUTHWEST KANSAS
  
CITY           SKY/WX    TMP DP  RH WIND       PRES   REMARKS
DODGE CITY     CLOUDY    11   4  73 N14       30.36R WCI  -5          
ELKHART        FLURRIES  15  12  88 N8        30.28R                  
GARDEN CITY    LGT SNOW   9   6  88 N14       30.34R VSB 1   WCI  -7  
GREAT BEND     CLOUDY    12   5  73 NW12      30.44R WCI  -2          
LIBERAL        FLURRIES  13   8  81 N16       30.33R WCI  -3          
$$

KSZ066>073-081>083-090>101-181500-
SOUTHEAST KANSAS
  
CITY           SKY/WX    TMP DP  RH WIND       PRES   REMARKS
CHANUTE        CLEAR     18  12  77 N8        30.43R                  
COFFEYVILLE    PTCLDY    19  14  81 NW8       30.44R                  
HUTCHINSON     MOCLDY    13   7  77 NW12      30.44R WCI  -1          
MEDICINE LODGE   N/A     17   8  67 N16G24    30.39F WCI   2          
NEWTON         MOCLDY    12   7  80 NW12      30.43R WCI  -2          
PARSONS        CLEAR     18  14  84 N8        30.43R                  
WICHITA INTL   CLOUDY    15   8  73 N14       30.44R WCI   0          
WICHITA JABRA  CLEAR     13   7  77 NW10      30.44R WCI   0          
WINFIELD       CLOUDY    16  10  77 N12       30.45R WCI   3          
$$

KSZ007>012-019>026-033>040-048>060-102>105-181500-
NORTHEAST KANSAS
  
CITY           SKY/WX    TMP DP  RH WIND       PRES   REMARKS
CONCORDIA      CLOUDY     5   1  83 W7        30.42R                  
EMPORIA        CLEAR     12   9  87 NW8       30.41R                  
LAWRENCE       PTCLDY    12   7  80 NW8       30.42R                  
MANHATTAN      PTCLDY     8   4  83 SW5       30.45R                  
OLATHE IND     PTCLDY    12   9  87 NW10      30.38S WCI  -1          
OLATHE EXE     CLOUDY    12   9  87 N9        30.37R                  
SALINA         PTCLDY    11   6  81 NW10      30.47R WCI  -3          
TOPEKA BILLARD PTCLDY    12   6  77 W8        30.43R                  
TOPEKA FORBES  PTCLDY     9   4  80 NW8       30.39S                  
$$